Flag Weather past 2 weeks in Moncton, New Brunswick, Canada

Now
18 °F

Partly sunny.


Feels Like: 9 °F
Forecast: 17 / 27 °F
Wind: 6 mph from Northwest

Location: Moncton

Current Time: Nov 28, 2014 at 8:22:16 AM

Latest Report: Nov 28, 2014 at 8:00 AM


Visibility: 15 mi

Pressure: 30.00 "Hg

Humidity: 79%

Dew point: 12 °F

Location of MonctonLocation

Historic Weather in Moncton — Graph

°F

Moncton temperature yesterday

Maximum temperature yesterday: 32 °F (at 12:00 AM)
Minimum temperature yesterday: 23 °F (at 11:00 PM)
Average temperature yesterday: 30 °F

Past Weeks' High & Low Weather Summary

 TemperatureHumidityPressure
High64 °F (Nov 25, 11:00 AM)100% (Nov 14, 3:00 PM)30.31 "Hg (Nov 14, 3:00 PM)
Low14 °F (Nov 22, 5:00 AM)39% (Nov 13, 3:00 PM)29.21 "Hg (Nov 18, 7:00 AM)
Average33 °F75%29.88 "Hg
* Reported Nov 13 7:00 AM — Nov 28 7:00 AM, Moncton, Weather by CustomWeather, © 2014

Note: Actual official high and low records may vary slightly from our data, if they occured in-between our weather recording intervals... More about our weather records

Advertising

Moncton weather history for previous 24 hours

 ConditionsComfort  
Time TempWeatherWind HumidityBarometerVisibility
7:00 AM
Nov 28
18 °FOvercast.7 mph79%30.00 "Hg15 mi
6:00 AM19 °FOvercast.7 mph79%29.99 "Hg15 mi
5:00 AM19 °FOvercast.6 mph79%30.00 "Hg15 mi
4:00 AM21 °FOvercast.5 mph80%29.98 "Hg15 mi
3:00 AM21 °FOvercast.8 mph80%29.96 "Hg15 mi
2:00 AM21 °FSnow flurries. Overcast.8 mph80%29.97 "Hg15 mi
1:00 AM21 °FSnow flurries. Overcast.8 mph80%29.98 "Hg15 mi
12:00 AM23 °FSnow flurries. Overcast.12 mph80%29.96 "Hg15 mi
11:00 PM
Nov 27
23 °FSnow flurries. Overcast.13 mph80%29.95 "Hg15 mi
10:00 PM25 °FSnow flurries. Overcast.10 mph80%29.94 "Hg15 mi
9:00 PM25 °FSnow flurries. Overcast.14 mph86%29.92 "Hg15 mi
8:00 PM25 °FSnow flurries. Passing clouds.6 mph86%29.90 "Hg15 mi
7:00 PM27 °FPassing clouds.12 mph80%29.90 "Hg15 mi
6:00 PM27 °FSnow flurries. Low clouds.10 mph86%29.87 "Hg12 mi
5:00 PM27 °FOvercast.14 mph86%29.83 "Hg12 mi
4:00 PM28 °FPartly sunny.17 mph80%29.78 "Hg12 mi
3:00 PM28 °FOvercast.17 mph80%29.73 "Hg12 mi
2:00 PM30 °FLight snow. Mostly cloudy.21 mph86%29.65 "Hg2 mi
1:00 PM32 °FLight snow. Cloudy.23 mph80%29.58 "Hg3 mi
12:00 PM32 °FLight snow. Low clouds.26 mph87%29.54 "Hg1 mi
11:00 AM32 °FLight snow. Low clouds.29 mph87%29.51 "Hg1 mi
10:00 AM32 °FLight snow. Dense fog.23 mph93%29.49 "Hg1 mi
9:00 AM32 °FLight snow. Low clouds.25 mph93%29.47 "Hg1 mi
8:00 AM32 °FLight snow. Low clouds.28 mph93%29.49 "Hg1 mi
Weather by CustomWeather, © 2014

See weather overviewHow to use our weather pages